sat.trackr.live / text

‹ back to catalog

STARLINK-36934

NORAD 68279 · 2026-055T

PAYLOAD ACTIVE UNKNOWN

§ Identity

Operator
Country
US
Launch date
2026-03-19
Launch site
AFETR
Launch vehicle
Mass (kg)
RCS (m²)

Purposes: comms

External: N2YO · Heavens-Above · Gunter

§ Orbital elements

Epoch: 2026-05-25T00:00:02.000160Z

Period
93.79 min
Inclination
53.1587°
Eccentricity
0.0001083
Mean motion
15.35374795 rev/d
Perigee alt
459.1 km
Apogee alt
460.5 km
Semi-major
6,837.9 km
B*
1.3954e-3
RAAN
323.8994°
Arg perigee
83.5025°
Mean anomaly
49.7461°
Rev number
583

§ Raw data

STARLINK-369341 68279U 26055T   26145.00002315  .00048570  00000+0  13954-2 0  99962 68279  53.1587 323.8994 0001083  83.5025  49.7461 15.35374795  5832

JSON: /api/v1/satellites/68279 · /tle

For live sub-satellite position, see the globe view (requires WebGL).

§ Visibility from observer

Set your observer location to see the next 7 days of passes ≥ 10°. The values pass through the URL so the page stays shareable.

No JS? Fill the form by hand. The geolocation button needs JavaScript.